{"data":{"norad_id":68525,"intl_designator":"2026-068T","name":"STARLINK-36311","alt_names":[],"object_type":"PAYLOAD","status":"ACTIVE","operator":null,"country":"US","launch_date":"2026-03-30","launch_site_code":"AFETR","launch_vehicle":null,"mission":null,"orbit_class":"UNKNOWN","rcs_meters":null,"size_class":null,"mass_kg":null,"dimensions":null,"purposes":["comms"],"wikipedia_slug":null,"has_3d_model":false,"image_url":null,"decayed_at":null,"tle_current":{"epoch":"2026-05-25T02:59:31.415424Z","epoch_age_seconds":64396,"freshness":"FRESH","line1":"1 68525U 26068T   26145.12466916  .00015357  00000+0  46463-3 0  9997","line2":"2 68525  53.1591 133.0923 0001664  85.0576 275.0617 15.34405606  8663","mean_motion":15.34405606,"eccentricity":0.0001664,"inclination_deg":53.1591,"raan_deg":133.0923,"arg_perigee_deg":85.0576,"mean_anomaly_deg":275.0617,"bstar":0.00046463,"rev_number":866,"period_min":93.847415205546,"perigee_km":461.54826500104,"apogee_km":463.82489108781,"semimajor_km":6840.8235780444,"source":"CELESTRAK","updated_at":"2026-05-25T13:38:21.956035Z"}}}